| time (UTC) | temp F | wind direction | speed knots | gust knots | rain 1hr in | rain 24hr in | rain mn in | humidity % | barometer mb |
| 20260509092906 | 50 | 182 | 0.0 | 0.0 | 0.00 | 0.00 | 0.00 | 85 | 1013.9 |
| 20260509085901 | 50 | 150 | 0.0 | 0.0 | 0.00 | 0.00 | 0.00 | 84 | 1013.9 |
| 20260509082859 | 49 | 150 | 0.0 | 0.0 | 0.00 | 0.00 | 0.00 | 84 | 1013.9 |
| 20260509075856 | 50 | 150 | 0.0 | 0.0 | 0.00 | 0.00 | 0.00 | 84 | 1014.2 |
| 20260509072854 | 50 | 168 | 0.0 | 0.0 | 0.00 | 0.00 | 0.00 | 84 | 1013.9 |
| 20260509065852 | 51 | 138 | 0.0 | 0.0 | 0.00 | 0.00 | 0.00 | 83 | 1013.9 |
| 20260509062850 | 52 | 215 | 0.0 | 0.0 | 0.00 | 0.00 | 0.00 | 77 | 1014.2 |
| 20260509055848 | 53 | 19 | 1.7 | 1.7 | 0.00 | 0.00 | 0.00 | 73 | 1014.5 |
| 20260509052848 | 51 | 30 | 0.0 | 0.0 | 0.00 | 0.00 | 0.00 | 84 | 1014.5 |
| 20260509045848 | 52 | 214 | 0.0 | 0.0 | 0.00 | 0.00 | 0.00 | 82 | 1014.5 |
| 20260509042846 | 52 | 138 | 0.9 | 0.9 | 0.00 | 0.00 | 0.00 | 79 | 1014.5 |
| 20260509035846 | 52 | 318 | 0.0 | 0.0 | 0.00 | 0.00 | 0.00 | 82 | 1014.9 |
| 20260509032846 | 52 | 150 | 0.9 | 0.9 | 0.00 | 0.00 | 0.00 | 80 | 1014.9 |
| 20260509025842 | 52 | 156 | 0.0 | 0.0 | 0.00 | 0.00 | 0.00 | 81 | 1015.2 |
| 20260509022838 | 52 | 198 | 0.0 | 0.0 | 0.00 | 0.00 | 0.00 | 77 | 1015.2 |
| 20260509015834 | 53 | 168 | 0.0 | 0.0 | 0.00 | 0.00 | 0.00 | 75 | 1014.9 |
| 20260509012832 | 54 | 176 | 0.0 | 0.0 | 0.00 | 0.00 | 0.00 | 76 | 1014.9 |
| 20260509005827 | 55 | 200 | 0.0 | 0.0 | 0.00 | 0.00 | 0.00 | 73 | 1014.5 |
| 20260509002826 | 56 | 156 | 0.9 | 0.9 | 0.00 | 0.00 | 0.00 | 69 | 1014.9 |
| 20260508235825 | 57 | 131 | 1.7 | 1.7 | 0.00 | 0.00 | 0.00 | 65 | 1014.5 |
| 20260508232821 | 61 | 276 | 0.0 | 0.0 | 0.00 | 0.00 | 0.00 | 55 | 1014.5 |
| 20260508225820 | 63 | 312 | 2.6 | 2.6 | 0.00 | 0.00 | 0.00 | 49 | 1014.5 |
| 20260508222815 | 63 | 330 | 1.7 | 1.7 | 0.00 | 0.00 | 0.00 | 47 | 1014.9 |
| 20260508215812 | 62 | 9 | 1.7 | 1.7 | 0.00 | 0.00 | 0.00 | 49 | 1014.9 |
| 20260508212809 | 62 | 269 | 5.2 | 5.2 | 0.00 | 0.00 | 0.00 | 51 | 1014.9 |
| 20260508205806 | 62 | 48 | 5.2 | 5.2 | 0.00 | 0.00 | 0.00 | 47 | 1014.9 |
| 20260508202801 | 62 | 312 | 2.6 | 2.6 | 0.00 | 0.00 | 0.00 | 48 | 1014.9 |
| 20260508195759 | 62 | 358 | 4.3 | 5.2 | 0.00 | 0.00 | 0.00 | 45 | 1014.9 |
| 20260508192756 | 65 | 132 | 1.7 | 1.7 | 0.00 | 0.00 | 0.00 | 43 | 1015.2 |
| 20260508185755 | 63 | 317 | 4.3 | 5.2 | 0.00 | 0.00 | 0.00 | 41 | 1015.2 |
| 20260508182754 | 64 | 0 | 1.7 | 1.7 | 0.00 | 0.00 | 0.00 | 40 | 1015.2 |
| 20260508175752 | 64 | 258 | 7.8 | 8.7 | 0.00 | 0.00 | 0.00 | 42 | 1016.0 |
| 20260508172750 | 63 | 247 | 7.8 | 8.7 | 0.00 | 0.00 | 0.00 | 44 | 1016.0 |
| 20260508165749 | 61 | 300 | 4.3 | 4.3 | 0.00 | 0.00 | 0.00 | 44 | 1016.3 |
| 20260508162748 | 59 | 240 | 0.0 | 0.0 | 0.00 | 0.00 | 0.00 | 50 | 1016.7 |
| 20260508155743 | 57 | 244 | 2.6 | 2.6 | 0.00 | 0.00 | 0.00 | 51 | 1017.4 |
| 20260508152742 | 56 | 288 | 3.5 | 3.5 | 0.00 | 0.00 | 0.00 | 52 | 1017.0 |
| 20260508145738 | 56 | 293 | 5.2 | 5.2 | 0.00 | 0.00 | 0.00 | 51 | 1017.0 |
| 20260508142736 | 55 | 221 | 2.6 | 2.6 | 0.00 | 0.00 | 0.00 | 53 | 1017.7 |
| 20260508135735 | 53 | 169 | 4.3 | 5.2 | 0.00 | 0.00 | 0.00 | 57 | 1017.7 |
| 20260508132733 | 53 | 281 | 3.5 | 3.5 | 0.00 | 0.00 | 0.00 | 59 | 1018.0 |
| 20260508125729 | 50 | 198 | 2.6 | 2.6 | 0.00 | 0.00 | 0.00 | 64 | 1018.4 |
| 20260508122724 | 48 | 282 | 3.5 | 3.5 | 0.00 | 0.00 | 0.00 | 67 | 1018.4 |
| 20260508115721 | 47 | 248 | 0.9 | 0.9 | 0.00 | 0.00 | 0.00 | 70 | 1018.0 |
| 20260508112720 | 40 | 227 | 0.0 | 0.0 | 0.00 | 0.00 | 0.00 | 87 | 1017.7 |
| 20260508105717 | 38 | 168 | 0.0 | 0.0 | 0.00 | 0.00 | 0.00 | 87 | 1017.4 |
| 20260508102712 | 37 | 180 | 0.0 | 0.0 | 0.00 | 0.00 | 0.00 | 87 | 1017.0 |
| 20260508095707 | 37 | 119 | 1.7 | 1.7 | 0.00 | 0.00 | 0.00 | 88 | 1017.0 |